This is the latest recevied weather packets stored in our database for station/object W2TAO. If no packets are shown the sender has not sent any weather packets the latest 10 day(s).
| Time | Temp. | Humidity | Pressure | Rain* | Wind** | Luminosity | Snow |
|---|---|---|---|---|---|---|---|
| 1777813401 | 5° C | 65% | 1013.6 hPa | 0 mm | - | 222 W/m² | - |
| 1777813098 | 5° C | 68% | 1013.7 hPa | 0 mm | - | 200 W/m² | - |
| 1777812796 | 5° C | 66% | 1013.9 hPa | 0 mm | - | 199 W/m² | - |
| 1777812492 | 5° C | 67% | 1013.7 hPa | 0 mm | - | 203 W/m² | - |
| 1777812191 | 5° C | 68% | 1013.9 hPa | 0 mm | - | 192 W/m² | - |
| 1777811888 | 4.44° C | 68% | 1013.7 hPa | 0 mm | - | 193 W/m² | - |
| 1777811587 | 5° C | 71% | 1013.9 hPa | 0 mm | - | 199 W/m² | - |
| 1777811282 | 4.44° C | 73% | 1013.7 hPa | 0 mm | - | 194 W/m² | - |
| 1777810980 | 4.44° C | 73% | 1013.7 hPa | 0 mm | - | 176 W/m² | - |
| 1777810676 | 3.89° C | 73% | 1013.7 hPa | 0 mm | - | 178 W/m² | - |
| 1777810373 | 3.89° C | 74% | 1013.7 hPa | 0 mm | - | 168 W/m² | - |
| 1777810069 | 3.89° C | 75% | 1013.9 hPa | 0 mm | - | 154 W/m² | - |
| 1777809767 | 3.89° C | 76% | 1013.7 hPa | 0 mm | - | 153 W/m² | - |
| 1777809464 | 3.89° C | 76% | 1013.7 hPa | 0 mm | - | 137 W/m² | - |
| 1777809162 | 3.33° C | 76% | 1013.6 hPa | 0 mm | - | 132 W/m² | - |
| 1777808859 | 3.33° C | 77% | 1013.7 hPa | 0 mm | - | 130 W/m² | - |
| 1777808556 | 3.33° C | 77% | 1013.6 hPa | 0 mm | - | 116 W/m² | - |
| 1777808253 | 3.33° C | 77% | 1013.5 hPa | 0 mm | - | 108 W/m² | - |
| 1777807952 | 2.78° C | 78% | 1013.7 hPa | 0 mm | - | 105 W/m² | - |
| 1777807649 | 2.78° C | 79% | 1013.6 hPa | 0 mm | - | 92 W/m² | - |
| 1777807346 | 2.78° C | 79% | 1013.5 hPa | 0 mm | - | 79 W/m² | - |
| 1777807042 | 2.22° C | 80% | 1013.4 hPa | 0 mm | - | 58 W/m² | - |
| 1777806739 | 2.22° C | 81% | 1013.5 hPa | 0 mm | - | 46 W/m² | - |
| 1777806435 | 2.22° C | 82% | 1013.3 hPa | 0 mm | - | 39 W/m² | - |
| 1777806132 | 2.22° C | 81% | 1013.2 hPa | 0 mm | - | 38 W/m² | - |
* Rain latest hour (hover to see other rain measurements)
** Current wind speed in m/s (hover to see current wind gust speed)